Location: Cabo di Oristano
(39.8500°N, 8.4333°E)
Time: 17:14:35
(UTC+00:00)

Cosmos 2219 Rocket - Pass Details

Date: 31 January 2023
Orbit: 826 x 848 km, 71.0° (Epoch: 30 March)

Event Time Altitude Azimuth Distance (km) Brightness Sun altitude
Exits shadow 04:03:25 - 357° (N) 2,621 4.7 -29.4°
Reaches altitude 10° 04:03:57 10° 1° (N) 2,459 4.6 -29.3°
Maximum altitude 04:08:32 25° 55° (NE) 1,644 4.2 -28.4°
Drops below altitude 10° 04:13:07 10° 110° (ESE) 2,460 5.5 -27.5°
Sets 04:16:00 0° 123° (ESE) 3,394 6.2 -27.0°
